Overview Statistics Trail Chart Weather Telemetry Raw packets
 

This is the latest recevied weather packets stored in our database for station/object M0JUI-1. If no packets are shown the sender has not sent any weather packets the latest 10 day(s).

<< 97 98 99 100 101 102 103 >>
Time Temp. Humidity Pressure Rain* Wind** Luminosity Snow
1787912877 18.33° C 99% 1003.9 hPa 0 mm - 370 W/m² -
1787912577 17.78° C 99% 1004.1 hPa 0 mm - 441 W/m² -
1787912265 17.78° C 99% 1003.9 hPa 0 mm - 247 W/m² -
1787911965 17.22° C 99% 1004.2 hPa 0 mm - 175 W/m² -
1787911664 17.22° C 99% 1004 hPa 0 mm - 213 W/m² -
1787911365 17.22° C 99% 1004.2 hPa 0 mm - 145 W/m² -
1787911064 17.22° C 99% 1004.1 hPa 0 mm - 86 W/m² -
1787910764 17.22° C 99% 1004 hPa 0 mm - 81 W/m² -
1787910464 17.22° C 99% 1004.2 hPa 0 mm - 164 W/m² -
1787910165 17.78° C 99% 1004 hPa 0 mm - 205 W/m² -
1787909864 17.78° C 99% 1004.2 hPa 0 mm - 203 W/m² -
1787909565 17.22° C 99% 1004 hPa 0 mm - 223 W/m² -
1787909264 17.22° C 99% 1004.1 hPa 0 mm - 340 W/m² -
1787908953 17.22° C 1% 1004.3 hPa 0 mm - 235 W/m² -
1787908652 16.67° C 1% 1004.4 hPa 0 mm - 195 W/m² -
1787908352 16.11° C 9% 1004.2 hPa 0 mm - 183 W/m² -
1787908053 16.67° C 15% 1004.4 hPa 0 mm - 360 W/m² -
1787907755 16.11° C 20% 1004.2 hPa 0 mm - 294 W/m² -
1787907452 16.67° C 22% 1004.3 hPa 0 mm - 382 W/m² -
1787907152 16.11° C 24% 1004.3 hPa 0 mm - 336 W/m² -
1787906841 15.56° C 25% 1004.4 hPa 0 mm - 287 W/m² -
1787906541 15.56° C 26% 1004.5 hPa 0 mm - 136 W/m² -
1787906240 15.56° C 27% 1004.3 hPa 0 mm - 238 W/m² -
1787905928 15° C 27% 1004.4 hPa 0 mm - 161 W/m² -
1787905630 15° C 28% 1004.4 hPa 0 mm - 159 W/m² -

* Rain latest hour (hover to see other rain measurements)
** Current wind speed in m/s (hover to see current wind gust speed)